| time (UTC) | temp F | wind direction | speed MPH | gust MPH | rain 1hr in | rain 24hr in | rain mn in | humidity % | barometer mb |
| 20260902100656 | 48 | 262 | 0.0 | 1.0 | 0.00 | 0.00 | 0.00 | 33 | 1022.2 |
| 20260902100153 | 48 | 252 | 0.0 | 1.0 | 0.00 | 0.00 | 0.00 | 33 | 1022.2 |
| 20260902095653 | 48 | 65 | 0.0 | 1.0 | 0.00 | 0.00 | 0.00 | 33 | 1022.1 |
| 20260902095150 | 48 | 30 | 0.0 | 1.0 | 0.00 | 0.00 | 0.00 | 33 | 1022.1 |
| 20260902094647 | 48 | 266 | 0.0 | 2.0 | 0.00 | 0.00 | 0.00 | 33 | 1022.2 |
| 20260902094145 | 48 | 263 | 0.0 | 2.0 | 0.00 | 0.00 | 0.00 | 34 | 1022.3 |
| 20260902093648 | 48 | 271 | 0.0 | 1.0 | 0.00 | 0.00 | 0.00 | 34 | 1022.3 |
| 20260902093145 | 48 | 34 | 0.0 | 1.0 | 0.00 | 0.00 | 0.00 | 34 | 1022.1 |
| 20260902092644 | 48 | 282 | 0.0 | 2.0 | 0.00 | 0.00 | 0.00 | 35 | 1022.2 |
| 20260902092202 | 48 | 42 | 0.0 | 2.0 | 0.00 | 0.00 | 0.00 | 35 | 1022.3 |
| 20260902091720 | 48 | 262 | 0.0 | 1.0 | 0.00 | 0.00 | 0.00 | 35 | 1022.3 |
| 20260902091157 | 48 | 89 | 0.0 | 1.0 | 0.00 | 0.00 | 0.00 | 36 | 1022.3 |
| 20260902090715 | 48 | 125 | 0.0 | 1.0 | 0.00 | 0.00 | 0.00 | 36 | 1022.3 |
| 20260902090151 | 48 | 274 | 0.0 | 1.0 | 0.00 | 0.00 | 0.00 | 37 | 1022.3 |
| 20260902085650 | 48 | 108 | 0.0 | 1.0 | 0.00 | 0.00 | 0.00 | 38 | 1022.4 |
| 20260902085143 | 48 | 115 | 0.0 | 1.0 | 0.00 | 0.00 | 0.00 | 39 | 1022.4 |
| 20260902084701 | 48 | 48 | 0.0 | 1.0 | 0.00 | 0.00 | 0.00 | 39 | 1022.4 |
| 20260902084159 | 48 | 126 | 0.0 | 1.0 | 0.00 | 0.00 | 0.00 | 39 | 1022.5 |
| 20260902083657 | 48 | 40 | 0.0 | 1.0 | 0.00 | 0.00 | 0.00 | 41 | 1022.6 |
| 20260902083155 | 48 | 41 | 0.0 | 1.0 | 0.00 | 0.00 | 0.00 | 40 | 1022.5 |
| 20260902082652 | 47 | 26 | 0.0 | 1.0 | 0.00 | 0.00 | 0.00 | 42 | 1022.6 |
| 20260902082149 | 48 | 16 | 0.0 | 1.0 | 0.00 | 0.00 | 0.00 | 42 | 1022.5 |
| 20260902081647 | 48 | 46 | 0.0 | 1.0 | 0.00 | 0.00 | 0.00 | 43 | 1022.6 |
| 20260902081148 | 47 | 208 | 0.0 | 1.0 | 0.00 | 0.00 | 0.00 | 43 | 1022.5 |
| 20260902080707 | 48 | 101 | 0.0 | 1.0 | 0.00 | 0.00 | 0.00 | 44 | 1022.5 |
| 20260902080143 | 48 | 7 | 0.0 | 1.0 | 0.00 | 0.00 | 0.00 | 44 | 1022.5 |
| 20260902075702 | 47 | 13 | 0.0 | 1.0 | 0.00 | 0.00 | 0.00 | 46 | 1022.4 |
| 20260902075159 | 47 | 112 | 0.0 | 1.0 | 0.00 | 0.00 | 0.00 | 47 | 1022.4 |
| 20260902074657 | 47 | 338 | 0.0 | 1.0 | 0.00 | 0.00 | 0.00 | 46 | 1022.3 |
| 20260902074153 | 47 | 24 | 0.0 | 1.0 | 0.00 | 0.00 | 0.00 | 46 | 1022.2 |
| 20260902073652 | 47 | 357 | 0.0 | 1.0 | 0.00 | 0.00 | 0.00 | 46 | 1022.2 |
| 20260902073150 | 47 | 356 | 0.0 | 0.0 | 0.00 | 0.00 | 0.00 | 47 | 1022.2 |
| 20260902072647 | 47 | 356 | 0.0 | 0.0 | 0.00 | 0.00 | 0.00 | 48 | 1022.3 |
| 20260902072206 | 48 | 356 | 0.0 | 0.0 | 0.00 | 0.00 | 0.00 | 47 | 1022.3 |
| 20260902071722 | 47 | 36 | 0.0 | 0.0 | 0.00 | 0.00 | 0.00 | 49 | 1022.4 |
| 20260902071219 | 47 | 142 | 0.0 | 0.0 | 0.00 | 0.00 | 0.00 | 50 | 1022.4 |
| 20260902070656 | 47 | 142 | 0.0 | 1.0 | 0.00 | 0.00 | 0.00 | 50 | 1022.4 |
| 20260902070155 | 47 | 142 | 0.0 | 1.0 | 0.00 | 0.00 | 0.00 | 50 | 1022.4 |
| 20260902065654 | 47 | 141 | 0.0 | 1.0 | 0.00 | 0.00 | 0.00 | 51 | 1022.5 |
| 20260902065148 | 47 | 121 | 0.0 | 1.0 | 0.00 | 0.00 | 0.00 | 50 | 1022.5 |
| 20260902064646 | 48 | 233 | 0.0 | 1.0 | 0.00 | 0.00 | 0.00 | 51 | 1022.4 |
| 20260902064146 | 48 | 268 | 0.0 | 1.0 | 0.00 | 0.00 | 0.00 | 51 | 1022.5 |
| 20260902063647 | 48 | 267 | 0.0 | 0.0 | 0.00 | 0.00 | 0.00 | 52 | 1022.5 |
| 20260902063145 | 47 | 267 | 0.0 | 0.0 | 0.00 | 0.00 | 0.00 | 52 | 1022.5 |
| 20260902062700 | 48 | 266 | 0.0 | 0.0 | 0.00 | 0.00 | 0.00 | 52 | 1022.6 |
| 20260902062158 | 48 | 267 | 0.0 | 0.0 | 0.00 | 0.00 | 0.00 | 52 | 1022.6 |
| 20260902061151 | 47 | 266 | 0.0 | 1.0 | 0.00 | 0.00 | 0.00 | 53 | 1022.6 |
| 20260902060646 | 47 | 239 | 0.0 | 0.0 | 0.00 | 0.00 | 0.00 | 53 | 1022.6 |
| 20260902060144 | 47 | 238 | 0.0 | 1.0 | 0.00 | 0.00 | 0.00 | 53 | 1022.7 |
| 20260902055702 | 47 | 239 | 0.0 | 1.0 | 0.00 | 0.00 | 0.00 | 53 | 1022.6 |
| 20260902055159 | 47 | 239 | 0.0 | 0.0 | 0.00 | 0.00 | 0.00 | 53 | 1022.7 |
| 20260902054657 | 48 | 239 | 0.0 | 0.0 | 0.00 | 0.00 | 0.00 | 53 | 1022.8 |
| 20260902054156 | 48 | 239 | 0.0 | 0.0 | 0.00 | 0.00 | 0.00 | 54 | 1022.8 |
| 20260902053655 | 47 | 239 | 0.0 | 0.0 | 0.00 | 0.00 | 0.00 | 55 | 1022.8 |
| 20260902053152 | 47 | 239 | 0.0 | 0.0 | 0.00 | 0.00 | 0.00 | 56 | 1022.9 |
| 20260902052730 | 47 | 239 | 0.0 | 0.0 | 0.00 | 0.00 | 0.00 | 57 | 1023.0 |
| 20260902052203 | 48 | 239 | 0.0 | 1.0 | 0.00 | 0.00 | 0.00 | 57 | 1023.0 |
| 20260902051702 | 48 | 239 | 0.0 | 1.0 | 0.00 | 0.00 | 0.00 | 58 | 1023.1 |
| 20260902051200 | 48 | 239 | 0.0 | 1.0 | 0.00 | 0.00 | 0.00 | 58 | 1023.1 |
| 20260902050701 | 48 | 239 | 0.0 | 1.0 | 0.00 | 0.00 | 0.00 | 59 | 1023.0 |
| 20260902050159 | 48 | 239 | 0.0 | 0.0 | 0.00 | 0.00 | 0.00 | 60 | 1023.0 |
| 20260902045658 | 48 | 239 | 0.0 | 0.0 | 0.00 | 0.00 | 0.00 | 60 | 1023.0 |
| 20260902045155 | 48 | 239 | 0.0 | 0.0 | 0.00 | 0.00 | 0.00 | 62 | 1023.0 |
| 20260902044652 | 48 | 239 | 0.0 | 0.0 | 0.00 | 0.00 | 0.00 | 62 | 1023.1 |
| 20260902044150 | 48 | 239 | 0.0 | 1.0 | 0.00 | 0.00 | 0.00 | 62 | 1023.1 |
| 20260902043648 | 48 | 239 | 0.0 | 1.0 | 0.00 | 0.00 | 0.00 | 62 | 1023.1 |
| 20260902043145 | 48 | 243 | 0.0 | 0.0 | 0.00 | 0.00 | 0.00 | 62 | 1022.9 |
| 20260902042724 | 49 | 243 | 0.0 | 0.0 | 0.00 | 0.00 | 0.00 | 62 | 1022.9 |
| 20260902042202 | 49 | 243 | 0.0 | 1.0 | 0.00 | 0.00 | 0.00 | 63 | 1022.9 |
| 20260902041659 | 49 | 244 | 0.0 | 1.0 | 0.00 | 0.00 | 0.00 | 63 | 1022.8 |
| 20260902041155 | 49 | 243 | 0.0 | 1.0 | 0.00 | 0.00 | 0.00 | 63 | 1022.7 |
| 20260902040714 | 49 | 243 | 0.0 | 1.0 | 0.00 | 0.00 | 0.00 | 62 | 1022.7 |
| 20260902040149 | 49 | 243 | 0.0 | 0.0 | 0.00 | 0.00 | 0.00 | 62 | 1022.7 |
| 20260902035648 | 50 | 243 | 0.0 | 0.0 | 0.00 | 0.00 | 0.00 | 60 | 1022.6 |
| 20260902035147 | 50 | 243 | 0.0 | 0.0 | 0.00 | 0.00 | 0.00 | 60 | 1022.5 |
| 20260902034648 | 50 | 243 | 0.0 | 0.0 | 0.00 | 0.00 | 0.00 | 60 | 1022.4 |
| 20260902034208 | 51 | 243 | 0.0 | 1.0 | 0.00 | 0.00 | 0.00 | 59 | 1022.4 |
| 20260902033704 | 51 | 243 | 0.0 | 1.0 | 0.00 | 0.00 | 0.00 | 59 | 1022.3 |
| 20260902033223 | 51 | 243 | 0.0 | 1.0 | 0.00 | 0.00 | 0.00 | 60 | 1022.4 |
| 20260902032655 | 51 | 243 | 0.0 | 1.0 | 0.00 | 0.00 | 0.00 | 60 | 1022.3 |
| 20260902032213 | 51 | 243 | 0.0 | 1.0 | 0.00 | 0.00 | 0.00 | 59 | 1022.2 |
| 20260902031650 | 51 | 243 | 0.0 | 1.0 | 0.00 | 0.00 | 0.00 | 60 | 1022.2 |
| 20260902031148 | 51 | 117 | 0.0 | 1.0 | 0.00 | 0.00 | 0.00 | 58 | 1022.1 |
| 20260902030645 | 51 | 117 | 0.0 | 0.0 | 0.00 | 0.00 | 0.00 | 58 | 1022.0 |
| 20260902030203 | 51 | 115 | 0.0 | 1.0 | 0.00 | 0.00 | 0.00 | 57 | 1021.9 |
| 20260902025702 | 52 | 49 | 0.0 | 1.0 | 0.00 | 0.00 | 0.00 | 57 | 1021.9 |
| 20260902025159 | 52 | 49 | 0.0 | 2.0 | 0.00 | 0.00 | 0.00 | 55 | 1021.9 |
| 20260902024657 | 52 | 49 | 0.0 | 2.0 | 0.00 | 0.00 | 0.00 | 55 | 1021.8 |
| 20260902024155 | 53 | 65 | 0.0 | 2.0 | 0.00 | 0.00 | 0.00 | 54 | 1021.7 |
| 20260902023713 | 53 | 138 | 0.0 | 3.0 | 0.00 | 0.00 | 0.00 | 54 | 1021.7 |
| 20260902023209 | 53 | 11 | 0.0 | 3.0 | 0.00 | 0.00 | 0.00 | 53 | 1021.8 |
| 20260902022646 | 53 | 11 | 0.0 | 3.0 | 0.00 | 0.00 | 0.00 | 52 | 1021.8 |
| 20260902022204 | 54 | 61 | 0.0 | 3.0 | 0.00 | 0.00 | 0.00 | 51 | 1021.8 |
| 20260902021702 | 54 | 248 | 1.0 | 4.0 | 0.00 | 0.00 | 0.00 | 50 | 1021.7 |
| 20260902021200 | 55 | 293 | 0.0 | 4.0 | 0.00 | 0.00 | 0.00 | 49 | 1021.6 |
| 20260902020657 | 55 | 226 | 0.0 | 3.0 | 0.00 | 0.00 | 0.00 | 49 | 1021.7 |
| 20260902020159 | 55 | 231 | 1.0 | 3.0 | 0.00 | 0.00 | 0.00 | 48 | 1021.6 |
| 20260902015658 | 56 | 176 | 0.0 | 2.0 | 0.00 | 0.00 | 0.00 | 47 | 1021.7 |
| 20260902015155 | 56 | 256 | 0.0 | 5.0 | 0.00 | 0.00 | 0.00 | 47 | 1021.6 |
| 20260902014653 | 56 | 145 | 1.0 | 5.0 | 0.00 | 0.00 | 0.00 | 46 | 1021.6 |
| 20260902014152 | 56 | 249 | 1.0 | 6.0 | 0.00 | 0.00 | 0.00 | 46 | 1021.7 |
| 20260902013710 | 57 | 131 | 1.0 | 6.0 | 0.00 | 0.00 | 0.00 | 46 | 1021.7 |
| 20260902013207 | 57 | 274 | 1.0 | 3.0 | 0.00 | 0.00 | 0.00 | 46 | 1021.6 |
| 20260902012724 | 57 | 311 | 1.0 | 2.0 | 0.00 | 0.00 | 0.00 | 46 | 1021.7 |
| 20260902012221 | 58 | 284 | 0.0 | 4.0 | 0.00 | 0.00 | 0.00 | 46 | 1021.6 |
| 20260902011657 | 58 | 256 | 2.0 | 6.0 | 0.00 | 0.00 | 0.00 | 46 | 1021.7 |
| 20260902011155 | 58 | 294 | 1.0 | 6.0 | 0.00 | 0.00 | 0.00 | 45 | 1021.7 |
| 20260902010653 | 59 | 286 | 2.0 | 6.0 | 0.00 | 0.00 | 0.00 | 45 | 1021.7 |
| 20260902010150 | 59 | 240 | 1.0 | 6.0 | 0.00 | 0.00 | 0.00 | 43 | 1021.9 |
| 20260902005649 | 60 | 228 | 2.0 | 6.0 | 0.00 | 0.00 | 0.00 | 41 | 1021.9 |
| 20260902005147 | 60 | 255 | 1.0 | 5.0 | 0.00 | 0.00 | 0.00 | 39 | 1021.9 |
| 20260902004704 | 60 | 254 | 1.0 | 5.0 | 0.00 | 0.00 | 0.00 | 38 | 1021.9 |
| 20260902004202 | 61 | 272 | 2.0 | 5.0 | 0.00 | 0.00 | 0.00 | 37 | 1022.0 |
| 20260902003659 | 61 | 108 | 1.0 | 5.0 | 0.00 | 0.00 | 0.00 | 36 | 1021.9 |
| 20260902003218 | 62 | 224 | 1.0 | 3.0 | 0.00 | 0.00 | 0.00 | 34 | 1021.9 |
| 20260902002654 | 62 | 127 | 1.0 | 4.0 | 0.00 | 0.00 | 0.00 | 33 | 1022.0 |
| 20260902002154 | 63 | 201 | 1.0 | 6.0 | 0.00 | 0.00 | 0.00 | 33 | 1022.0 |
| 20260902001652 | 63 | 283 | 1.0 | 6.0 | 0.00 | 0.00 | 0.00 | 31 | 1022.1 |
| 20260902001149 | 64 | 282 | 1.0 | 5.0 | 0.00 | 0.00 | 0.00 | 31 | 1022.1 |
| 20260902000647 | 64 | 235 | 1.0 | 5.0 | 0.00 | 0.00 | 0.00 | 31 | 1022.0 |
| 20260902000226 | 64 | 293 | 0.0 | 5.0 | 0.00 | 0.00 | 0.00 | 31 | 1021.9 |
| 20260901235702 | 65 | 282 | 1.0 | 5.0 | 0.00 | 0.00 | 0.00 | 30 | 1022.1 |
| 20260901235200 | 65 | 265 | 1.0 | 4.0 | 0.00 | 0.00 | 0.00 | 30 | 1022.1 |
| 20260901234658 | 65 | 292 | 1.0 | 4.0 | 0.00 | 0.00 | 0.00 | 28 | 1022.1 |
| 20260901234216 | 65 | 306 | 1.0 | 4.0 | 0.00 | 0.00 | 0.00 | 28 | 1022.0 |
| 20260901233653 | 65 | 245 | 1.0 | 4.0 | 0.00 | 0.00 | 0.00 | 29 | 1022.0 |
| 20260901233149 | 65 | 274 | 1.0 | 7.0 | 0.00 | 0.00 | 0.00 | 29 | 1022.1 |
| 20260901232648 | 65 | 248 | 1.0 | 8.0 | 0.00 | 0.00 | 0.00 | 29 | 1022.1 |
| 20260901232226 | 66 | 223 | 2.0 | 8.0 | 0.00 | 0.00 | 0.00 | 29 | 1022.2 |
| 20260901231703 | 66 | 238 | 1.0 | 6.0 | 0.00 | 0.00 | 0.00 | 28 | 1022.2 |
| 20260901231221 | 66 | 256 | 2.0 | 6.0 | 0.00 | 0.00 | 0.00 | 28 | 1022.3 |
| 20260901230658 | 66 | 276 | 2.0 | 6.0 | 0.00 | 0.00 | 0.00 | 27 | 1022.3 |
| 20260901230155 | 66 | 275 | 1.0 | 6.0 | 0.00 | 0.00 | 0.00 | 27 | 1022.4 |
| 20260901225655 | 66 | 237 | 1.0 | 5.0 | 0.00 | 0.00 | 0.00 | 26 | 1022.4 |
| 20260901225150 | 66 | 299 | 1.0 | 8.0 | 0.00 | 0.00 | 0.00 | 26 | 1022.4 |
| 20260901224651 | 66 | 248 | 2.0 | 8.0 | 0.00 | 0.00 | 0.00 | 25 | 1022.4 |
| 20260901224150 | 67 | 238 | 2.0 | 5.0 | 0.00 | 0.00 | 0.00 | 24 | 1022.5 |
| 20260901223218 | 67 | 281 | 1.0 | 4.0 | 0.00 | 0.00 | 0.00 | 24 | 1022.6 |
| 20260901222715 | 67 | 213 | 2.0 | 4.0 | 0.00 | 0.00 | 0.00 | 24 | 1022.5 |
| 20260901222150 | 67 | 255 | 2.0 | 6.0 | 0.00 | 0.00 | 0.00 | 24 | 1022.6 |
| 20260901221648 | 67 | 229 | 1.0 | 5.0 | 0.00 | 0.00 | 0.00 | 24 | 1022.6 |
| 20260901221206 | 67 | 268 | 2.0 | 5.0 | 0.00 | 0.00 | 0.00 | 24 | 1022.7 |
| 20260901220725 | 67 | 268 | 1.0 | 5.0 | 0.00 | 0.00 | 0.00 | 23 | 1022.6 |
| 20260901220202 | 68 | 181 | 2.0 | 5.0 | 0.00 | 0.00 | 0.00 | 23 | 1022.6 |
| 20260901215700 | 68 | 255 | 1.0 | 6.0 | 0.00 | 0.00 | 0.00 | 23 | 1022.7 |
| 20260901215158 | 68 | 289 | 1.0 | 6.0 | 0.00 | 0.00 | 0.00 | 23 | 1022.7 |
| 20260901214657 | 68 | 277 | 1.0 | 5.0 | 0.00 | 0.00 | 0.00 | 23 | 1022.7 |
| 20260901214156 | 69 | 242 | 2.0 | 6.0 | 0.00 | 0.00 | 0.00 | 23 | 1022.7 |
| 20260901213654 | 69 | 266 | 2.0 | 6.0 | 0.00 | 0.00 | 0.00 | 22 | 1022.7 |
| 20260901213150 | 69 | 294 | 1.0 | 5.0 | 0.00 | 0.00 | 0.00 | 22 | 1022.6 |
| 20260901212647 | 70 | 273 | 1.0 | 6.0 | 0.00 | 0.00 | 0.00 | 22 | 1022.6 |
| 20260901212202 | 70 | 312 | 2.0 | 6.0 | 0.00 | 0.00 | 0.00 | 21 | 1022.8 |
| 20260901211706 | 69 | 284 | 1.0 | 5.0 | 0.00 | 0.00 | 0.00 | 23 | 1022.8 |
| 20260901211224 | 69 | 288 | 2.0 | 6.0 | 0.00 | 0.00 | 0.00 | 23 | 1022.9 |
| 20260901210658 | 70 | 213 | 1.0 | 6.0 | 0.00 | 0.00 | 0.00 | 23 | 1022.8 |
| 20260901210156 | 70 | 276 | 1.0 | 4.0 | 0.00 | 0.00 | 0.00 | 23 | 1022.9 |
| 20260901205653 | 70 | 291 | 1.0 | 10.0 | 0.00 | 0.00 | 0.00 | 23 | 1022.8 |
| 20260901205210 | 70 | 245 | 1.0 | 6.0 | 0.00 | 0.00 | 0.00 | 23 | 1022.8 |
| 20260901204706 | 71 | 236 | 1.0 | 6.0 | 0.00 | 0.00 | 0.00 | 22 | 1022.8 |
| 20260901204204 | 70 | 238 | 2.0 | 6.0 | 0.00 | 0.00 | 0.00 | 21 | 1022.8 |
| 20260901203703 | 70 | 311 | 2.0 | 6.0 | 0.00 | 0.00 | 0.00 | 22 | 1022.8 |
| 20260901203200 | 70 | 279 | 1.0 | 4.0 | 0.00 | 0.00 | 0.00 | 23 | 1023.2 |
| 20260901202658 | 70 | 240 | 1.0 | 6.0 | 0.00 | 0.00 | 0.00 | 22 | 1023.1 |
| 20260901202155 | 70 | 92 | 2.0 | 6.0 | 0.00 | 0.00 | 0.00 | 22 | 1023.1 |
| 20260901201652 | 70 | 131 | 1.0 | 10.0 | 0.00 | 0.00 | 0.00 | 22 | 1023.1 |
| 20260901201150 | 70 | 345 | 2.0 | 10.0 | 0.00 | 0.00 | 0.00 | 22 | 1023.3 |
| 20260901200707 | 71 | 299 | 2.0 | 5.0 | 0.00 | 0.00 | 0.00 | 20 | 1023.3 |
| 20260901200205 | 71 | 275 | 1.0 | 4.0 | 0.00 | 0.00 | 0.00 | 20 | 1023.3 |
| 20260901195703 | 70 | 258 | 1.0 | 4.0 | 0.00 | 0.00 | 0.00 | 19 | 1023.1 |
| 20260901195205 | 70 | 207 | 2.0 | 5.0 | 0.00 | 0.00 | 0.00 | 21 | 1023.3 |
| 20260901194703 | 70 | 221 | 2.0 | 6.0 | 0.00 | 0.00 | 0.00 | 20 | 1023.3 |
| 20260901194202 | 70 | 236 | 2.0 | 6.0 | 0.00 | 0.00 | 0.00 | 20 | 1023.4 |
| 20260901193700 | 70 | 291 | 2.0 | 6.0 | 0.00 | 0.00 | 0.00 | 20 | 1023.4 |
| 20260901193158 | 71 | 258 | 2.0 | 6.0 | 0.00 | 0.00 | 0.00 | 19 | 1023.4 |
| 20260901192654 | 70 | 111 | 1.0 | 6.0 | 0.00 | 0.00 | 0.00 | 20 | 1023.4 |
| 20260901192151 | 70 | 286 | 2.0 | 6.0 | 0.00 | 0.00 | 0.00 | 19 | 1023.5 |
| 20260901191649 | 70 | 235 | 1.0 | 4.0 | 0.00 | 0.00 | 0.00 | 19 | 1023.5 |
| 20260901191207 | 70 | 237 | 1.0 | 5.0 | 0.00 | 0.00 | 0.00 | 20 | 1023.5 |
| 20260901190704 | 70 | 252 | 2.0 | 8.0 | 0.00 | 0.00 | 0.00 | 19 | 1023.6 |
| 20260901190202 | 70 | 67 | 2.0 | 8.0 | 0.00 | 0.00 | 0.00 | 20 | 1023.6 |
| 20260901185701 | 69 | 264 | 1.0 | 4.0 | 0.00 | 0.00 | 0.00 | 21 | 1023.6 |
| 20260901185158 | 69 | 261 | 2.0 | 3.0 | 0.00 | 0.00 | 0.00 | 20 | 1023.7 |
| 20260901184656 | 70 | 250 | 2.0 | 3.0 | 0.00 | 0.00 | 0.00 | 20 | 1023.6 |
| 20260901184159 | 69 | 212 | 1.0 | 5.0 | 0.00 | 0.00 | 0.00 | 20 | 1023.7 |
| 20260901183657 | 69 | 234 | 1.0 | 5.0 | 0.00 | 0.00 | 0.00 | 21 | 1023.6 |
| 20260901183154 | 69 | 293 | 1.0 | 6.0 | 0.00 | 0.00 | 0.00 | 21 | 1023.6 |
| 20260901182652 | 69 | 245 | 2.0 | 6.0 | 0.00 | 0.00 | 0.00 | 22 | 1023.7 |
| 20260901182149 | 69 | 296 | 1.0 | 5.0 | 0.00 | 0.00 | 0.00 | 24 | 1023.6 |
| 20260901181707 | 69 | 212 | 1.0 | 4.0 | 0.00 | 0.00 | 0.00 | 25 | 1023.6 |
| 20260901181206 | 68 | 271 | 2.0 | 5.0 | 0.00 | 0.00 | 0.00 | 26 | 1023.6 |
| 20260901180703 | 68 | 277 | 1.0 | 4.0 | 0.00 | 0.00 | 0.00 | 25 | 1023.5 |
| 20260901180202 | 69 | 116 | 1.0 | 5.0 | 0.00 | 0.00 | 0.00 | 25 | 1023.5 |
| 20260901175701 | 69 | 110 | 2.0 | 5.0 | 0.00 | 0.00 | 0.00 | 26 | 1023.4 |
| 20260901175159 | 69 | 271 | 1.0 | 5.0 | 0.00 | 0.00 | 0.00 | 26 | 1023.4 |
| 20260901174657 | 69 | 255 | 1.0 | 5.0 | 0.00 | 0.00 | 0.00 | 26 | 1023.4 |
| 20260901174154 | 69 | 302 | 1.0 | 6.0 | 0.00 | 0.00 | 0.00 | 28 | 1023.3 |
| 20260901173652 | 68 | 309 | 3.0 | 6.0 | 0.00 | 0.00 | 0.00 | 28 | 1023.4 |
| 20260901173154 | 68 | 148 | 1.0 | 5.0 | 0.00 | 0.00 | 0.00 | 29 | 1023.3 |
| 20260901172652 | 68 | 277 | 1.0 | 5.0 | 0.00 | 0.00 | 0.00 | 29 | 1023.3 |
| 20260901172149 | 68 | 198 | 1.0 | 6.0 | 0.00 | 0.00 | 0.00 | 30 | 1023.2 |
| 20260901171707 | 68 | 276 | 2.0 | 6.0 | 0.00 | 0.00 | 0.00 | 29 | 1023.1 |
| 20260901171204 | 67 | 132 | 1.0 | 5.0 | 0.00 | 0.00 | 0.00 | 29 | 1023.2 |
| 20260901170702 | 67 | 175 | 1.0 | 5.0 | 0.00 | 0.00 | 0.00 | 29 | 1023.1 |
| 20260901170159 | 66 | 134 | 1.0 | 8.0 | 0.00 | 0.00 | 0.00 | 29 | 1023.1 |
| 20260901165658 | 66 | 293 | 2.0 | 8.0 | 0.00 | 0.00 | 0.00 | 28 | 1023.1 |
| 20260901165156 | 66 | 47 | 3.0 | 8.0 | 0.00 | 0.00 | 0.00 | 25 | 1023.1 |
| 20260901164653 | 66 | 326 | 1.0 | 7.0 | 0.00 | 0.00 | 0.00 | 27 | 1023.0 |
| 20260901164203 | 66 | 304 | 2.0 | 7.0 | 0.00 | 0.00 | 0.00 | 30 | 1023.1 |
| 20260901163702 | 65 | 327 | 1.0 | 6.0 | 0.00 | 0.00 | 0.00 | 31 | 1023.0 |
| 20260901163220 | 65 | 243 | 1.0 | 5.0 | 0.00 | 0.00 | 0.00 | 32 | 1022.9 |
| 20260901162657 | 64 | 257 | 0.0 | 5.0 | 0.00 | 0.00 | 0.00 | 32 | 1022.9 |
| 20260901162155 | 64 | 295 | 1.0 | 5.0 | 0.00 | 0.00 | 0.00 | 32 | 1022.9 |
| 20260901161711 | 64 | 260 | 0.0 | 3.0 | 0.00 | 0.00 | 0.00 | 34 | 1022.8 |
| 20260901161208 | 63 | 259 | 1.0 | 2.0 | 0.00 | 0.00 | 0.00 | 33 | 1022.8 |
| 20260901160650 | 63 | 205 | 1.0 | 3.0 | 0.00 | 0.00 | 0.00 | 35 | 1022.8 |
| 20260901160224 | 62 | 275 | 0.0 | 3.0 | 0.00 | 0.00 | 0.00 | 38 | 1022.8 |
| 20260901155705 | 62 | 244 | 1.0 | 3.0 | 0.00 | 0.00 | 0.00 | 39 | 1022.8 |
| 20260901155200 | 61 | 165 | 1.0 | 3.0 | 0.00 | 0.00 | 0.00 | 39 | 1022.7 |
| 20260901154658 | 61 | 303 | 1.0 | 3.0 | 0.00 | 0.00 | 0.00 | 40 | 1022.8 |
| 20260901154157 | 61 | 303 | 0.0 | 3.0 | 0.00 | 0.00 | 0.00 | 41 | 1022.7 |
| 20260901153656 | 60 | 174 | 1.0 | 5.0 | 0.00 | 0.00 | 0.00 | 40 | 1022.6 |
| 20260901153153 | 60 | 266 | 1.0 | 5.0 | 0.00 | 0.00 | 0.00 | 40 | 1022.6 |
| 20260901152650 | 60 | 257 | 1.0 | 4.0 | 0.00 | 0.00 | 0.00 | 41 | 1022.6 |
| 20260901152207 | 59 | 266 | 1.0 | 5.0 | 0.00 | 0.00 | 0.00 | 42 | 1022.6 |
| 20260901151725 | 59 | 306 | 1.0 | 5.0 | 0.00 | 0.00 | 0.00 | 42 | 1022.5 |
| 20260901151202 | 58 | 282 | 1.0 | 5.0 | 0.00 | 0.00 | 0.00 | 42 | 1022.4 |
| 20260901150659 | 59 | 264 | 1.0 | 3.0 | 0.00 | 0.00 | 0.00 | 42 | 1022.5 |
| 20260901150217 | 58 | 281 | 1.0 | 2.0 | 0.00 | 0.00 | 0.00 | 41 | 1022.5 |
| 20260901145655 | 58 | 271 | 1.0 | 2.0 | 0.00 | 0.00 | 0.00 | 40 | 1022.4 |
| 20260901145151 | 58 | 247 | 1.0 | 4.0 | 0.00 | 0.00 | 0.00 | 39 | 1022.4 |
| 20260901144729 | 58 | 297 | 1.0 | 5.0 | 0.00 | 0.00 | 0.00 | 39 | 1022.3 |
| 20260901144206 | 58 | 288 | 0.0 | 5.0 | 0.00 | 0.00 | 0.00 | 36 | 1022.2 |
| 20260901143704 | 57 | 180 | 0.0 | 6.0 | 0.00 | 0.00 | 0.00 | 36 | 1022.1 |
| 20260901143202 | 57 | 252 | 0.0 | 6.0 | 0.00 | 0.00 | 0.00 | 37 | 1022.0 |
| 20260901142705 | 57 | 320 | 1.0 | 4.0 | 0.00 | 0.00 | 0.00 | 36 | 1021.9 |
| 20260901142202 | 57 | 208 | 1.0 | 4.0 | 0.00 | 0.00 | 0.00 | 36 | 1021.9 |
| 20260901141700 | 56 | 294 | 1.0 | 4.0 | 0.00 | 0.00 | 0.00 | 37 | 1021.9 |
| 20260901141158 | 56 | 249 | 1.0 | 2.0 | 0.00 | 0.00 | 0.00 | 37 | 1021.9 |
| 20260901140656 | 55 | 293 | 1.0 | 3.0 | 0.00 | 0.00 | 0.00 | 35 | 1021.7 |
| 20260901140154 | 55 | 243 | 1.0 | 3.0 | 0.00 | 0.00 | 0.00 | 36 | 1021.8 |
| 20260901135650 | 54 | 287 | 0.0 | 3.0 | 0.00 | 0.00 | 0.00 | 36 | 1021.7 |
| 20260901135209 | 54 | 229 | 1.0 | 2.0 | 0.00 | 0.00 | 0.00 | 36 | 1021.7 |
| 20260901134706 | 54 | 184 | 0.0 | 4.0 | 0.00 | 0.00 | 0.00 | 35 | 1021.7 |
| 20260901134204 | 53 | 239 | 1.0 | 5.0 | 0.00 | 0.00 | 0.00 | 36 | 1021.6 |
| 20260901133701 | 52 | 250 | 0.0 | 5.0 | 0.00 | 0.00 | 0.00 | 36 | 1021.5 |
| 20260901133159 | 51 | 296 | 0.0 | 1.0 | 0.00 | 0.00 | 0.00 | 35 | 1021.5 |
| 20260901132657 | 50 | 357 | 0.0 | 1.0 | 0.00 | 0.00 | 0.00 | 34 | 1021.6 |
| 20260901132154 | 50 | 352 | 0.0 | 1.0 | 0.00 | 0.00 | 0.00 | 34 | 1021.5 |
| 20260901131656 | 50 | 30 | 0.0 | 1.0 | 0.00 | 0.00 | 0.00 | 33 | 1021.6 |
| 20260901131154 | 51 | 75 | 0.0 | 1.0 | 0.00 | 0.00 | 0.00 | 32 | 1021.6 |
| 20260901130711 | 51 | 78 | 0.0 | 1.0 | 0.00 | 0.00 | 0.00 | 32 | 1021.6 |
| 20260901130209 | 51 | 82 | 0.0 | 1.0 | 0.00 | 0.00 | 0.00 | 31 | 1021.5 |
| 20260901125707 | 51 | 44 | 0.0 | 0.0 | 0.00 | 0.00 | 0.00 | 32 | 1021.6 |
| 20260901125204 | 51 | 240 | 0.0 | 1.0 | 0.00 | 0.00 | 0.00 | 33 | 1021.6 |
| 20260901124702 | 51 | 240 | 0.0 | 1.0 | 0.00 | 0.00 | 0.00 | 33 | 1021.5 |
| 20260901124200 | 50 | 250 | 0.0 | 1.0 | 0.00 | 0.00 | 0.00 | 36 | 1021.6 |
| 20260901123718 | 49 | 250 | 0.0 | 1.0 | 0.00 | 0.00 | 0.00 | 37 | 1021.6 |
| 20260901123154 | 49 | 250 | 0.0 | 0.0 | 0.00 | 0.00 | 0.00 | 36 | 1021.7 |
| 20260901122652 | 49 | 250 | 0.0 | 0.0 | 0.00 | 0.00 | 0.00 | 36 | 1021.7 |
| 20260901122230 | 49 | 250 | 0.0 | 1.0 | 0.00 | 0.00 | 0.00 | 35 | 1021.7 |
| 20260901121729 | 49 | 250 | 0.0 | 1.0 | 0.00 | 0.00 | 0.00 | 35 | 1021.7 |
| 20260901121225 | 49 | 250 | 0.0 | 1.0 | 0.00 | 0.00 | 0.00 | 35 | 1021.7 |
| 20260901120702 | 49 | 250 | 0.0 | 1.0 | 0.00 | 0.00 | 0.00 | 35 | 1021.7 |
| 20260901120200 | 49 | 250 | 0.0 | 1.0 | 0.00 | 0.00 | 0.00 | 36 | 1021.7 |
| 20260901115658 | 49 | 250 | 0.0 | 1.0 | 0.00 | 0.00 | 0.00 | 34 | 1021.8 |
| 20260901115156 | 49 | 250 | 0.0 | 1.0 | 0.00 | 0.00 | 0.00 | 34 | 1021.7 |
| 20260901114654 | 49 | 250 | 0.0 | 1.0 | 0.00 | 0.00 | 0.00 | 35 | 1021.8 |
| 20260901114153 | 49 | 250 | 0.0 | 1.0 | 0.00 | 0.00 | 0.00 | 36 | 1021.8 |
| 20260901113711 | 49 | 250 | 0.0 | 1.0 | 0.00 | 0.00 | 0.00 | 35 | 1021.7 |
| 20260901113208 | 49 | 250 | 0.0 | 1.0 | 0.00 | 0.00 | 0.00 | 36 | 1021.8 |
| 20260901112706 | 49 | 250 | 0.0 | 1.0 | 0.00 | 0.00 | 0.00 | 36 | 1021.8 |
| 20260901112204 | 50 | 250 | 0.0 | 1.0 | 0.00 | 0.00 | 0.00 | 36 | 1021.7 |
| 20260901111702 | 50 | 250 | 0.0 | 1.0 | 0.00 | 0.00 | 0.00 | 36 | 1021.7 |
| 20260901111200 | 50 | 250 | 0.0 | 1.0 | 0.00 | 0.00 | 0.00 | 35 | 1021.7 |
| 20260901110657 | 50 | 243 | 0.0 | 1.0 | 0.00 | 0.00 | 0.00 | 35 | 1021.9 |
| 20260901110155 | 50 | 243 | 0.0 | 1.0 | 0.00 | 0.00 | 0.00 | 35 | 1021.9 |
| 20260901105654 | 50 | 243 | 0.0 | 1.0 | 0.00 | 0.00 | 0.00 | 35 | 1021.9 |
| 20260901105210 | 49 | 250 | 0.0 | 1.0 | 0.00 | 0.00 | 0.00 | 36 | 1021.9 |
| 20260901104708 | 49 | 252 | 0.0 | 1.0 | 0.00 | 0.00 | 0.00 | 37 | 1021.9 |
| 20260901104206 | 50 | 252 | 0.0 | 0.0 | 0.00 | 0.00 | 0.00 | 38 | 1021.9 |
| 20260901103705 | 50 | 252 | 0.0 | 0.0 | 0.00 | 0.00 | 0.00 | 38 | 1021.9 |
| 20260901103202 | 50 | 252 | 0.0 | 1.0 | 0.00 | 0.00 | 0.00 | 38 | 1021.9 |
| 20260901102659 | 50 | 252 | 0.0 | 1.0 | 0.00 | 0.00 | 0.00 | 38 | 1021.9 |
| 20260901102157 | 50 | 252 | 0.0 | 0.0 | 0.00 | 0.00 | 0.00 | 39 | 1021.9 |
| 20260901101653 | 50 | 252 | 0.0 | 1.0 | 0.00 | 0.00 | 0.00 | 39 | 1022.1 |
| 20260901101211 | 50 | 252 | 0.0 | 1.0 | 0.00 | 0.00 | 0.00 | 39 | 1022.2 |